Retour au catalogue

CZ-6A DEB

ActifPO
NORAD 61346·DEBRIS·🇨🇳 China

Lancé Aug 6, 2024 depuis Taiyuan Satellite Launch Center

Loading…

Prochains Passages (prochaines 24 heures)

TLE

FraisSource: Space-Track

Époque: Sep 14, 2026, 10:36 UTC

1 61346U 24140VK  26257.44225527  .00021436  00000-0  19444-2 0  9994
2 61346  88.9502 253.0066 0039097 236.1678 123.5830 14.94634298108323

Suivez CZ-6A DEB en temps réel avec AllMySat

Download on the App Store